,,,PA_Meas_PMT16A,,PR_Meas_QMR101_102,,RH_Meas_QMH101,,SR_Meas_QMS101,,TA_Meas_QMH101,,GenWind,,GenWind,
date,time,status,PA,status,PR,status,RH,status,SR,status,TA,status,DirAvg,status,SpdAvg,
2010-09-04, 00:00:04,VALID,1004.61,VALID,0,VALID,82.0257,VALID,0.100563,VALID,26.9926,VALID,26,VALID,0.891406,
2010-09-04, 00:01:04,VALID,1004.63,VALID,0,VALID,82.0562,VALID,0.100563,VALID,26.9906,VALID,92,VALID,1.61289,
2010-09-04, 00:02:04,VALID,1004.6,VALID,0,VALID,81.9647,VALID,0.100563,VALID,26.9926,VALID,90,VALID,1.28867,
2010-09-04, 00:03:04,VALID,1004.58,VALID,0,VALID,81.8426,VALID,0.100563,VALID,27.0121,VALID,83,VALID,1.83438,
2010-09-04, 00:04:04,VALID,1004.57,VALID,0,VALID,81.8197,VALID,0.100563,VALID,27.0101,VALID,76,VALID,0.910937,
2010-09-04, 00:05:04,VALID,1004.52,VALID,0,VALID,81.9189,VALID,0.100563,VALID,26.9906,VALID,14,VALID,1.18711,
2010-09-04, 00:06:04,VALID,1004.49,VALID,0,VALID,82.0791,VALID,0.100563,VALID,26.9732,VALID,97,VALID,0.690625,
2010-09-04, 00:07:04,VALID,1004.48,VALID,0,VALID,82.1554,VALID,0.100563,VALID,26.9321,VALID,86,VALID,0.690625,
2010-09-04, 00:08:04,VALID,1004.48,VALID,0,VALID,82.2622,VALID,0.100563,VALID,26.9147,VALID,105,VALID,1.17422,
2010-09-04, 00:09:04,VALID,1004.45,VALID,0,VALID,82.3538,VALID,0.100563,VALID,26.8952,VALID,91,VALID,1.28555,
2010-09-04, 00:10:04,VALID,1004.41,VALID,0,VALID,82.3538,VALID,0.100563,VALID,26.8973,VALID,106,VALID,1.59609,
2010-09-04, 00:11:04,VALID,1004.42,VALID,0,VALID,82.2164,VALID,0,VALID,26.9362,VALID,102,VALID,1.04219,
2010-09-04, 00:12:04,VALID,1004.41,VALID,0,VALID,82.1554,VALID,0,VALID,26.9557,VALID,105,VALID,1.10352,
2010-09-04, 00:13:04,VALID,1004.41,VALID,0,VALID,82.2546,VALID,0,VALID,26.9383,VALID,75,VALID,0.7,
2010-09-04, 00:14:04,VALID,1004.39,VALID,0,VALID,82.163,VALID,0,VALID,26.9362,VALID,115,VALID,1.31914,
2010-09-04, 00:15:04,VALID,1004.4,VALID,0,VALID,82.1554,VALID,0,VALID,26.9167,VALID,106,VALID,1.2457,
2010-09-04, 00:16:04,VALID,1004.36,VALID,0,VALID,82.0791,VALID,0,VALID,26.9362,VALID,76,VALID,0.553125,
2010-09-04, 00:17:04,VALID,1004.37,VALID,0,VALID,82.163,VALID,0,VALID,26.9362,VALID,105,VALID,0.796484,
2010-09-04, 00:18:04,VALID,1004.37,VALID,0,VALID,82.1936,VALID,0,VALID,26.8952,VALID,113,VALID,1.45938,
2010-09-04, 00:19:04,VALID,1004.33,VALID,0,VALID,82.2927,VALID,0,VALID,26.8952,VALID,84,VALID,1.63281,
2010-09-04, 00:20:04,VALID,1004.31,VALID,0,VALID,82.3843,VALID,0,VALID,26.8973,VALID,132,VALID,0.863281,
2010-09-04, 00:21:04,VALID,1004.28,VALID,0,VALID,82.3995,VALID,0,VALID,26.8583,VALID,124,VALID,0.665234,
2010-09-04, 00:22:04,VALID,1004.28,VALID,0,VALID,82.3156,VALID,0,VALID,26.8778,VALID,99,VALID,1.90742,
2010-09-04, 00:23:04,VALID,1004.3,VALID,0,VALID,82.0868,VALID,0,VALID,26.9362,VALID,94,VALID,1.15508,
2010-09-04, 00:24:04,VALID,1004.27,VALID,0,VALID,81.9647,VALID,0,VALID,26.9537,VALID,99,VALID,1.0457,
2010-09-04, 00:25:04,VALID,1004.24,VALID,0,VALID,81.8884,VALID,0,VALID,26.9752,VALID,132,VALID,1.33633,
2010-09-04, 00:26:04,VALID,1004.27,VALID,0,VALID,81.8197,VALID,0,VALID,26.9947,VALID,67,VALID,1.00664,
2010-09-04, 00:27:04,VALID,1004.26,VALID,0,VALID,81.6519,VALID,0,VALID,27.0142,VALID,100,VALID,1.95391,
2010-09-04, 00:28:04,VALID,1004.29,VALID,0,VALID,81.4917,VALID,0,VALID,27.0726,VALID,88,VALID,0.862891,
2010-09-04, 00:29:04,VALID,1004.3,VALID,0,VALID,81.3239,VALID,0,VALID,27.0706,VALID,111,VALID,2.40273,
2010-09-04, 00:30:04,VALID,1004.31,VALID,0,VALID,81.1026,VALID,0,VALID,27.1311,VALID,41,VALID,1.29688,
2010-09-04, 00:31:04,VALID,1004.25,VALID,0,VALID,81.1179,VALID,0,VALID,27.1095,VALID,70,VALID,1.05469,
2010-09-04, 00:32:04,VALID,1004.25,VALID,0,VALID,81.2628,VALID,0,VALID,27.1136,VALID,94,VALID,0.907812,
2010-09-04, 00:33:04,VALID,1004.22,VALID,0,VALID,81.3849,VALID,0,VALID,27.0531,VALID,109,VALID,0.710156,
2010-09-04, 00:34:04,VALID,1004.23,VALID,0,VALID,81.6214,VALID,0,VALID,26.9926,VALID,106,VALID,1.60859,
2010-09-04, 00:35:04,VALID,1004.24,VALID,0,VALID,81.568,VALID,0,VALID,27.0336,VALID,97,VALID,1.38828,
2010-09-04, 00:36:04,VALID,1004.26,VALID,0,VALID,81.774,VALID,0,VALID,27.0142,VALID,119,VALID,1.20859,
2010-09-04, 00:37:04,VALID,1004.23,VALID,0,VALID,81.6443,VALID,0,VALID,27.0121,VALID,71,VALID,1.06602,
2010-09-04, 00:38:04,VALID,1004.24,VALID,0,VALID,81.7129,VALID,0,VALID,27.0142,VALID,76,VALID,1.08906,
2010-09-04, 00:39:04,VALID,1004.19,VALID,0,VALID,81.6748,VALID,0.100563,VALID,27.0121,VALID,116,VALID,1.34258,
2010-09-04, 00:40:04,VALID,1004.2,VALID,0,VALID,81.6595,VALID,0,VALID,27.0531,VALID,102,VALID,1.4832,
2010-09-04, 00:41:04,VALID,1004.22,VALID,0,VALID,81.7663,VALID,0,VALID,27.0142,VALID,118,VALID,0.766797,
2010-09-04, 00:42:04,VALID,1004.2,VALID,0,VALID,81.7816,VALID,0,VALID,26.9926,VALID,124,VALID,1.99023,
2010-09-04, 00:43:04,VALID,1004.21,VALID,0,VALID,81.6595,VALID,0,VALID,27.0121,VALID,61,VALID,1.1793,
2010-09-04, 00:44:04,VALID,1004.19,VALID,0,VALID,81.6443,VALID,0,VALID,27.0142,VALID,68,VALID,0.928516,
2010-09-04, 00:45:04,VALID,1004.16,VALID,0,VALID,81.8579,VALID,0,VALID,26.9752,VALID,48,VALID,0.964844,
2010-09-04, 00:46:04,VALID,1004.15,VALID,0,VALID,81.9037,VALID,0,VALID,26.9752,VALID,97,VALID,1.6125,
2010-09-04, 00:47:04,VALID,1004.13,VALID,0,VALID,81.7969,VALID,0,VALID,27.0142,VALID,115,VALID,1.30273,
2010-09-04, 00:48:04,VALID,1004.15,VALID,0,VALID,81.6977,VALID,0,VALID,27.0336,VALID,81,VALID,1.21445,
2010-09-04, 00:49:04,VALID,1004.15,VALID,0,VALID,81.6672,VALID,0,VALID,27.0531,VALID,75,VALID,1.25586,
2010-09-04, 00:50:04,VALID,1004.17,VALID,0,VALID,81.6367,VALID,0,VALID,27.0316,VALID,97,VALID,1.28125,
2010-09-04, 00:51:04,VALID,1004.15,VALID,0,VALID,81.6748,VALID,0,VALID,27.0336,VALID,89,VALID,0.803125,
2010-09-04, 00:52:04,VALID,1004.17,VALID,0,VALID,81.6214,VALID,0,VALID,27.0336,VALID,88,VALID,1.74492,
2010-09-04, 00:53:04,VALID,1004.15,VALID,0,VALID,81.6061,VALID,0,VALID,27.0531,VALID,82,VALID,1.45273,
2010-09-04, 00:54:04,VALID,1004.11,VALID,0,VALID,81.5451,VALID,0,VALID,27.0316,VALID,93,VALID,1.70117,
2010-09-04, 00:55:04,VALID,1004.13,VALID,0,VALID,81.4688,VALID,0,VALID,27.0726,VALID,109,VALID,2.46719,
2010-09-04, 00:56:04,VALID,1004.12,VALID,0,VALID,81.5222,VALID,0,VALID,27.0706,VALID,72,VALID,0.832031,
2010-09-04, 00:57:04,VALID,1004.13,VALID,0,VALID,81.568,VALID,0,VALID,27.0316,VALID,38,VALID,1.57187,
2010-09-04, 00:58:04,VALID,1004.13,VALID,0,VALID,81.7816,VALID,0,VALID,27.0142,VALID,96,VALID,1.41094,
2010-09-04, 00:59:04,VALID,1004.14,VALID,0,VALID,81.8808,VALID,0,VALID,27.0142,VALID,95,VALID,1.18711,
2010-09-04, 01:00:04,VALID,1004.12,VALID,0,VALID,81.9494,VALID,0,VALID,26.9947,VALID,73,VALID,1.34102,
2010-09-04, 01:01:04,VALID,1004.13,VALID,0,VALID,82.1096,VALID,0,VALID,26.9557,VALID,85,VALID,0.709375,
2010-09-04, 01:02:04,VALID,1004.11,VALID,0,VALID,82.0791,VALID,0,VALID,26.9732,VALID,108,VALID,2.36758,
2010-09-04, 01:03:04,VALID,1004.07,VALID,0,VALID,81.8426,VALID,0,VALID,26.9926,VALID,83,VALID,1.47187,
2010-09-04, 01:04:04,VALID,1004.09,VALID,0,VALID,81.9265,VALID,0,VALID,26.9926,VALID,95,VALID,1.24414,
2010-09-04, 01:05:04,VALID,1004.1,VALID,0,VALID,81.8426,VALID,0,VALID,26.9926,VALID,82,VALID,1.42969,
2010-09-04, 01:06:04,VALID,1004.04,VALID,0,VALID,81.8884,VALID,0,VALID,27.0336,VALID,67,VALID,0.861328,
2010-09-04, 01:07:04,VALID,1004.03,VALID,0,VALID,81.9723,VALID,0,VALID,26.9926,VALID,109,VALID,0.805859,
2010-09-04, 01:08:04,VALID,1003.97,VALID,0,VALID,81.9265,VALID,0,VALID,26.9947,VALID,87,VALID,1.61328,
2010-09-04, 01:09:04,VALID,1003.93,VALID,0,VALID,81.9494,VALID,0,VALID,27.0142,VALID,81,VALID,1.57422,
2010-09-04, 01:10:04,VALID,1003.9,VALID,0,VALID,81.896,VALID,0,VALID,26.9926,VALID,80,VALID,1.83594,
2010-09-04, 01:11:04,VALID,1003.84,VALID,0,VALID,81.8045,VALID,0,VALID,27.0336,VALID,69,VALID,1.65117,
2010-09-04, 01:12:04,VALID,1003.83,VALID,0,VALID,81.5756,VALID,0,VALID,27.0511,VALID,87,VALID,2.22617,
2010-09-04, 01:13:04,VALID,1003.8,VALID,0,VALID,81.5298,VALID,0,VALID,27.0726,VALID,68,VALID,1.38516,
2010-09-04, 01:14:04,VALID,1003.75,VALID,0,VALID,81.6824,VALID,0,VALID,27.0316,VALID,34,VALID,1.31914,
2010-09-04, 01:15:04,VALID,1003.72,VALID,0,VALID,81.6138,VALID,0,VALID,27.0121,VALID,88,VALID,2.05,
2010-09-04, 01:16:04,VALID,1003.7,VALID,0,VALID,81.6443,VALID,0,VALID,27.0726,VALID,90,VALID,1.34922,
2010-09-04, 01:17:04,VALID,1003.7,VALID,0,VALID,81.7511,VALID,0,VALID,27.0336,VALID,110,VALID,1.29492,
2010-09-04, 01:18:04,VALID,1003.71,VALID,0,VALID,81.8197,VALID,0,VALID,27.0336,VALID,89,VALID,1.87539,
2010-09-04, 01:19:04,VALID,1003.7,VALID,0,VALID,81.8121,VALID,0,VALID,27.0121,VALID,61,VALID,1.25664,
2010-09-04, 01:20:04,VALID,1003.69,VALID,0,VALID,81.9723,VALID,0,VALID,27.0142,VALID,89,VALID,1.99531,
2010-09-04, 01:21:04,VALID,1003.71,VALID,0,VALID,81.9876,VALID,0,VALID,26.9732,VALID,93,VALID,1.07266,
2010-09-04, 01:22:04,VALID,1003.71,VALID,0,VALID,82.0257,VALID,0,VALID,27.0142,VALID,104,VALID,1.50469,
2010-09-04, 01:23:04,VALID,1003.71,VALID,0,VALID,82.0333,VALID,0,VALID,26.9926,VALID,100,VALID,0.889844,
2010-09-04, 01:24:04,VALID,1003.73,VALID,0,VALID,82.0868,VALID,0,VALID,26.9752,VALID,40,VALID,1.09453,
2010-09-04, 01:25:04,VALID,1003.77,VALID,0,VALID,82.2088,VALID,0,VALID,26.9342,VALID,89,VALID,1.52422,
2010-09-04, 01:26:04,VALID,1003.74,VALID,0,VALID,82.2851,VALID,0,VALID,26.9167,VALID,88,VALID,0.776953,
2010-09-04, 01:27:04,VALID,1003.81,VALID,0,VALID,82.2317,VALID,0,VALID,26.9167,VALID,94,VALID,1.63047,
2010-09-04, 01:28:04,VALID,1003.78,VALID,0,VALID,82.2088,VALID,0,VALID,26.9557,VALID,109,VALID,1.52852,
2010-09-04, 01:29:04,VALID,1003.8,VALID,0,VALID,82.0639,VALID,0,VALID,26.9752,VALID,35,VALID,0.864453,
2010-09-04, 01:30:04,VALID,1003.78,VALID,0,VALID,81.8884,VALID,0,VALID,26.9557,VALID,120,VALID,1.59336,
2010-09-04, 01:31:04,VALID,1003.79,VALID,0,VALID,81.9189,VALID,0,VALID,26.9752,VALID,103,VALID,1.17969,
2010-09-04, 01:32:04,VALID,1003.78,VALID,0,VALID,81.7587,VALID,0,VALID,26.9732,VALID,69,VALID,1.49141,
2010-09-04, 01:33:04,VALID,1003.8,VALID,0,VALID,81.6748,VALID,0,VALID,26.9947,VALID,86,VALID,0.995313,
2010-09-04, 01:34:04,VALID,1003.82,VALID,0,VALID,81.6519,VALID,0,VALID,26.9947,VALID,103,VALID,1.95742,
2010-09-04, 01:35:04,VALID,1003.82,VALID,0,VALID,81.6595,VALID,0,VALID,27.0142,VALID,92,VALID,1.75586,
2010-09-04, 01:36:04,VALID,1003.81,VALID,0,VALID,81.4841,VALID,0,VALID,27.0531,VALID,109,VALID,1.83008,
2010-09-04, 01:37:04,VALID,1003.8,VALID,0,VALID,81.3849,VALID,0,VALID,27.0511,VALID,103,VALID,1.59102,
2010-09-04, 01:38:04,VALID,1003.82,VALID,0,VALID,81.3849,VALID,0,VALID,27.0316,VALID,45,VALID,0.824219,
2010-09-04, 01:39:04,VALID,1003.83,VALID,0,VALID,81.5222,VALID,0,VALID,27.0336,VALID,108,VALID,1.87109,
2010-09-04, 01:40:04,VALID,1003.8,VALID,0,VALID,81.3467,VALID,0,VALID,27.0511,VALID,128,VALID,1.96602,
2010-09-04, 01:41:04,VALID,1003.82,VALID,0,VALID,81.3239,VALID,0,VALID,27.0706,VALID,61,VALID,0.771484,
2010-09-04, 01:42:04,VALID,1003.84,VALID,0,VALID,81.4154,VALID,0,VALID,27.0336,VALID,33,VALID,1.18516,
2010-09-04, 01:43:04,VALID,1003.84,VALID,0,VALID,81.3467,VALID,0,VALID,27.0142,VALID,247,VALID,1.77539,
2010-09-04, 01:44:04,VALID,1003.86,VALID,0,VALID,81.3315,VALID,0,VALID,27.0336,VALID,96,VALID,1.83203,
2010-09-04, 01:45:04,VALID,1003.87,VALID,0,VALID,81.301,VALID,0,VALID,27.0531,VALID,93,VALID,1.56133,
2010-09-04, 01:46:04,VALID,1003.84,VALID,0,VALID,81.3467,VALID,0,VALID,27.0121,VALID,37,VALID,1.35586,
2010-09-04, 01:47:04,VALID,1003.82,VALID,0,VALID,81.034,VALID,0,VALID,27.0511,VALID,81,VALID,2.02187,
2010-09-04, 01:48:04,VALID,1003.8,VALID,0,VALID,81.0111,VALID,0,VALID,27.0726,VALID,104,VALID,1.70859,
2010-09-04, 01:49:04,VALID,1003.74,VALID,0,VALID,81.0034,VALID,0,VALID,27.0316,VALID,96,VALID,1.70156,
2010-09-04, 01:50:04,VALID,1003.75,VALID,0,VALID,81.2323,VALID,0,VALID,27.0336,VALID,83,VALID,0.81875,
2010-09-04, 01:51:04,VALID,1003.68,VALID,0,VALID,81.301,VALID,0,VALID,26.9947,VALID,65,VALID,1.51875,
2010-09-04, 01:52:04,VALID,1003.72,VALID,0,VALID,81.5451,VALID,0,VALID,26.9342,VALID,95,VALID,1.16328,
2010-09-04, 01:53:04,VALID,1003.71,VALID,0,VALID,81.6595,VALID,0,VALID,26.8952,VALID,87,VALID,0.992188,
2010-09-04, 01:54:04,VALID,1003.71,VALID,0,VALID,81.7511,VALID,0,VALID,26.8563,VALID,81,VALID,0.925781,
2010-09-04, 01:55:04,VALID,1003.66,VALID,0,VALID,81.8274,VALID,0,VALID,26.8368,VALID,86,VALID,1.34492,
2010-09-04, 01:56:04,VALID,1003.67,VALID,0,VALID,81.9418,VALID,0,VALID,26.8778,VALID,17,VALID,0.907422,
2010-09-04, 01:57:04,VALID,1003.65,VALID,0,VALID,82.0486,VALID,0,VALID,26.8173,VALID,53,VALID,0.445313,
2010-09-04, 01:58:04,VALID,1003.63,VALID,0,VALID,82.163,VALID,0,VALID,26.7978,VALID,53,VALID,0.900781,
2010-09-04, 01:59:04,VALID,1003.59,VALID,0,VALID,82.3232,VALID,0,VALID,26.7804,VALID,15,VALID,0.271875,
2010-09-04, 02:00:04,VALID,1003.59,VALID,0,VALID,82.5063,VALID,0,VALID,26.7414,VALID,90,VALID,1.08047,
2010-09-04, 02:01:04,VALID,1003.6,VALID,0,VALID,82.5826,VALID,0,VALID,26.7004,VALID,73,VALID,0.580859,
2010-09-04, 02:02:04,VALID,1003.64,VALID,0,VALID,82.7123,VALID,0,VALID,26.6809,VALID,66,VALID,1.09375,
2010-09-04, 02:03:04,VALID,1003.62,VALID,0,VALID,82.7428,VALID,0,VALID,26.683,VALID,24,VALID,0.919922,
2010-09-04, 02:04:04,VALID,1003.67,VALID,0,VALID,82.8878,VALID,0,VALID,26.6614,VALID,80,VALID,0.554297,
2010-09-04, 02:05:04,VALID,1003.65,VALID,0,VALID,82.8573,VALID,0,VALID,26.642,VALID,28,VALID,1.58984,
2010-09-04, 02:06:04,VALID,1003.62,VALID,0,VALID,82.8191,VALID,0,VALID,26.7024,VALID,54,VALID,0.820313,
2010-09-04, 02:07:04,VALID,1003.59,VALID,0,VALID,82.6818,VALID,0,VALID,26.7024,VALID,69,VALID,0.959375,
2010-09-04, 02:08:04,VALID,1003.6,VALID,0,VALID,82.7428,VALID,0.100563,VALID,26.6809,VALID,82,VALID,0.466797,
2010-09-04, 02:09:04,VALID,1003.56,VALID,0,VALID,82.7428,VALID,0,VALID,26.6614,VALID,82,VALID,0.484766,
2010-09-04, 02:10:04,VALID,1003.52,VALID,0,VALID,82.7657,VALID,0,VALID,26.6635,VALID,73,VALID,0.504297,
2010-09-04, 02:11:04,VALID,1003.53,VALID,0,VALID,82.8496,VALID,0,VALID,26.642,VALID,107,VALID,1.01055,
2010-09-04, 02:12:04,VALID,1003.49,VALID,0,VALID,82.9488,VALID,0,VALID,26.6635,VALID,94,VALID,1.55469,
2010-09-04, 02:13:04,VALID,1003.5,VALID,0,VALID,82.9564,VALID,0,VALID,26.6225,VALID,23,VALID,1.00703,
2010-09-04, 02:14:04,VALID,1003.53,VALID,0,VALID,83.0556,VALID,0,VALID,26.6225,VALID,13,VALID,0.376953,
2010-09-04, 02:15:04,VALID,1003.5,VALID,0,VALID,83.0785,VALID,0,VALID,26.6245,VALID,73,VALID,1.28359,
2010-09-04, 02:16:04,VALID,1003.48,VALID,0,VALID,83.1319,VALID,0,VALID,26.5835,VALID,93,VALID,0.824609,
2010-09-04, 02:17:04,VALID,1003.49,VALID,0,VALID,83.109,VALID,0,VALID,26.603,VALID,69,VALID,2.11953,
2010-09-04, 02:18:04,VALID,1003.5,VALID,0,VALID,83.0556,VALID,0.100563,VALID,26.6225,VALID,71,VALID,1.19414,
2010-09-04, 02:19:04,VALID,1003.44,VALID,0,VALID,83.0632,VALID,0,VALID,26.6245,VALID,113,VALID,1.08945,
2010-09-04, 02:20:04,VALID,1003.42,VALID,0,VALID,83.1319,VALID,0,VALID,26.605,VALID,93,VALID,0.558203,
2010-09-04, 02:21:04,VALID,1003.44,VALID,0,VALID,83.109,VALID,0,VALID,26.605,VALID,70,VALID,0.831641,
2010-09-04, 02:22:04,VALID,1003.43,VALID,0,VALID,83.109,VALID,0,VALID,26.605,VALID,106,VALID,1.10273,
2010-09-04, 02:23:04,VALID,1003.41,VALID,0,VALID,83.2235,VALID,0,VALID,26.5641,VALID,93,VALID,0.893359,
2010-09-04, 02:24:04,VALID,1003.36,VALID,0,VALID,83.0938,VALID,0,VALID,26.5855,VALID,77,VALID,1.62617,
2010-09-04, 02:25:04,VALID,1003.36,VALID,0,VALID,83.0938,VALID,0,VALID,26.5855,VALID,75,VALID,0.928125,
2010-09-04, 02:26:04,VALID,1003.33,VALID,0,VALID,83.0098,VALID,0,VALID,26.605,VALID,117,VALID,1.13672,
2010-09-04, 02:27:04,VALID,1003.34,VALID,0,VALID,83.0556,VALID,0,VALID,26.5446,VALID,87,VALID,0.79375,
2010-09-04, 02:28:04,VALID,1003.34,VALID,0,VALID,83.0709,VALID,0,VALID,26.607,VALID,32,VALID,0.749219,
2010-09-04, 02:29:04,VALID,1003.32,VALID,0,VALID,83.0022,VALID,0,VALID,26.5466,VALID,115,VALID,0.650781,
2010-09-04, 02:30:04,VALID,1003.38,VALID,0,VALID,82.9946,VALID,0,VALID,26.5661,VALID,17,VALID,0.859375,
2010-09-04, 02:31:04,VALID,1003.36,VALID,0,VALID,83.0251,VALID,0,VALID,26.5251,VALID,96,VALID,0.218359,
2010-09-04, 02:32:04,VALID,1003.37,VALID,0,VALID,83.1777,VALID,0,VALID,26.5271,VALID,94,VALID,0.991016,
2010-09-04, 02:33:04,VALID,1003.33,VALID,0,VALID,82.9564,VALID,0,VALID,26.5466,VALID,54,VALID,0.748828,
2010-09-04, 02:34:04,VALID,1003.36,VALID,0,VALID,82.9717,VALID,0,VALID,26.5681,VALID,66,VALID,0.447266,
2010-09-04, 02:35:04,VALID,1003.35,VALID,0,VALID,82.8725,VALID,0,VALID,26.5271,VALID,106,VALID,1.19219,
2010-09-04, 02:36:04,VALID,1003.36,VALID,0,VALID,82.842,VALID,0,VALID,26.5251,VALID,89,VALID,0.642578,
2010-09-04, 02:37:04,VALID,1003.34,VALID,0,VALID,82.7123,VALID,0,VALID,26.5876,VALID,113,VALID,0.960938,
2010-09-04, 02:38:04,VALID,1003.37,VALID,0,VALID,82.6055,VALID,0,VALID,26.5855,VALID,99,VALID,0.891406,
2010-09-04, 02:39:04,VALID,1003.3,VALID,0,VALID,82.4377,VALID,0,VALID,26.5835,VALID,83,VALID,1.39961,
2010-09-04, 02:40:04,VALID,1003.3,VALID,0,VALID,82.4682,VALID,0,VALID,26.605,VALID,85,VALID,0.641797,
2010-09-04, 02:41:04,VALID,1003.27,VALID,0,VALID,82.4148,VALID,0,VALID,26.5855,VALID,89,VALID,1.15234,
2010-09-04, 02:42:04,VALID,1003.29,VALID,0,VALID,82.4987,VALID,0,VALID,26.5641,VALID,105,VALID,1.40469,
2010-09-04, 02:43:04,VALID,1003.3,VALID,0,VALID,82.3766,VALID,0,VALID,26.605,VALID,64,VALID,1.02461,
2010-09-04, 02:44:04,VALID,1003.31,VALID,0,VALID,82.308,VALID,0,VALID,26.5855,VALID,90,VALID,0.841016,
2010-09-04, 02:45:04,VALID,1003.34,VALID,0,VALID,82.3232,VALID,0,VALID,26.605,VALID,87,VALID,1.16289,
2010-09-04, 02:46:04,VALID,1003.3,VALID,0,VALID,82.3461,VALID,0,VALID,26.5855,VALID,98,VALID,0.749609,
2010-09-04, 02:47:04,VALID,1003.35,VALID,0,VALID,82.2622,VALID,0,VALID,26.605,VALID,79,VALID,0.869141,
2010-09-04, 02:48:04,VALID,1003.32,VALID,0,VALID,82.0715,VALID,0,VALID,26.644,VALID,93,VALID,1.12109,
2010-09-04, 02:49:04,VALID,1003.32,VALID,0,VALID,82.1402,VALID,0,VALID,26.6635,VALID,112,VALID,0.996875,
2010-09-04, 02:50:04,VALID,1003.33,VALID,0,VALID,82.1402,VALID,0,VALID,26.6225,VALID,79,VALID,0.358203,
2010-09-04, 02:51:04,VALID,1003.32,VALID,0,VALID,82.0868,VALID,0,VALID,26.644,VALID,114,VALID,1.76094,
2010-09-04, 02:52:04,VALID,1003.32,VALID,0,VALID,82.2088,VALID,0,VALID,26.6245,VALID,97,VALID,1.47852,
2010-09-04, 02:53:04,VALID,1003.33,VALID,0,VALID,82.0639,VALID,0,VALID,26.644,VALID,71,VALID,1.69727,
2010-09-04, 02:54:04,VALID,1003.33,VALID,0,VALID,82.0791,VALID,0,VALID,26.644,VALID,113,VALID,0.9125,
2010-09-04, 02:55:04,VALID,1003.33,VALID,0,VALID,82.1554,VALID,0,VALID,26.6245,VALID,103,VALID,1.71797,
2010-09-04, 02:56:04,VALID,1003.31,VALID,0,VALID,82.1173,VALID,0,VALID,26.644,VALID,95,VALID,2.29414,
2010-09-04, 02:57:04,VALID,1003.29,VALID,0,VALID,82.1783,VALID,0,VALID,26.644,VALID,93,VALID,0.699219,
2010-09-04, 02:58:04,VALID,1003.28,VALID,0,VALID,82.2698,VALID,0,VALID,26.605,VALID,94,VALID,1.04336,
2010-09-04, 02:59:04,VALID,1003.31,VALID,0,VALID,82.2851,VALID,0,VALID,26.5855,VALID,96,VALID,1.27852,
2010-09-04, 03:00:04,VALID,1003.28,VALID,0,VALID,82.2164,VALID,0,VALID,26.6245,VALID,66,VALID,0.757031,
2010-09-04, 03:01:04,VALID,1003.3,VALID,0,VALID,82.2088,VALID,0,VALID,26.605,VALID,76,VALID,0.553516,
2010-09-04, 03:02:04,VALID,1003.32,VALID,0,VALID,82.2393,VALID,0,VALID,26.5855,VALID,79,VALID,0.703516,
2010-09-04, 03:03:04,VALID,1003.32,VALID,0,VALID,82.247,VALID,0,VALID,26.5855,VALID,45,VALID,0.290234,
2010-09-04, 03:04:04,VALID,1003.31,VALID,0,VALID,82.1859,VALID,0,VALID,26.5855,VALID,47,VALID,1.49883,
2010-09-04, 03:05:04,VALID,1003.34,VALID,0,VALID,82.2622,VALID,0,VALID,26.6265,VALID,85,VALID,0.576953,
2010-09-04, 03:06:04,VALID,1003.37,VALID,0,VALID,82.1173,VALID,0,VALID,26.603,VALID,33,VALID,0.716797,
2010-09-04, 03:07:04,VALID,1003.35,VALID,0,VALID,82.0257,VALID,0,VALID,26.644,VALID,98,VALID,0.902734,
2010-09-04, 03:08:04,VALID,1003.31,VALID,0,VALID,82.0181,VALID,0,VALID,26.6635,VALID,99,VALID,1.11055,
2010-09-04, 03:09:04,VALID,1003.31,VALID,0,VALID,81.8426,VALID,0,VALID,26.6614,VALID,118,VALID,1.38125,
2010-09-04, 03:10:04,VALID,1003.3,VALID,0,VALID,81.9723,VALID,0,VALID,26.7024,VALID,9,VALID,0.372656,
2010-09-04, 03:11:04,VALID,1003.32,VALID,0,VALID,81.8121,VALID,0,VALID,26.7024,VALID,66,VALID,1.00898,
2010-09-04, 03:12:04,VALID,1003.35,VALID,0,VALID,81.7816,VALID,0,VALID,26.683,VALID,35,VALID,1.07344,
2010-09-04, 03:13:04,VALID,1003.3,VALID,0,VALID,81.5222,VALID,0,VALID,26.7609,VALID,97,VALID,1.66445,
2010-09-04, 03:14:04,VALID,1003.31,VALID,0,VALID,81.3544,VALID,0,VALID,26.7998,VALID,79,VALID,0.944922,
2010-09-04, 03:15:04,VALID,1003.35,VALID,0,VALID,81.4459,VALID,0,VALID,26.7783,VALID,51,VALID,0.935547,
2010-09-04, 03:16:04,VALID,1003.35,VALID,0,VALID,81.301,VALID,0,VALID,26.8193,VALID,78,VALID,1.27813,
2010-09-04, 03:17:04,VALID,1003.37,VALID,0,VALID,81.2857,VALID,0,VALID,26.8193,VALID,1,VALID,1.10195,
2010-09-04, 03:18:04,VALID,1003.31,VALID,0,VALID,81.1637,VALID,0,VALID,26.8583,VALID,15,VALID,1.65313,
2010-09-04, 03:19:04,VALID,1003.3,VALID,0,VALID,81.2094,VALID,0,VALID,26.8583,VALID,92,VALID,0.553906,
2010-09-04, 03:20:04,VALID,1003.33,VALID,0,VALID,81.095,VALID,0,VALID,26.8993,VALID,68,VALID,1.13242,
2010-09-04, 03:21:04,VALID,1003.32,VALID,0,VALID,81.1713,VALID,0,VALID,26.8778,VALID,31,VALID,0.795703,
2010-09-04, 03:22:04,VALID,1003.3,VALID,0,VALID,81.2628,VALID,0,VALID,26.8583,VALID,83,VALID,1.65625,
2010-09-04, 03:23:04,VALID,1003.35,VALID,0,VALID,81.2705,VALID,0,VALID,26.8583,VALID,50,VALID,0.746484,
2010-09-04, 03:24:04,VALID,1003.33,VALID,0,VALID,81.1713,VALID,0,VALID,26.8778,VALID,21,VALID,0.460547,
2010-09-04, 03:25:04,VALID,1003.36,VALID,0,VALID,81.2857,VALID,0,VALID,26.8603,VALID,127,VALID,0.710547,
2010-09-04, 03:26:04,VALID,1003.39,VALID,0,VALID,81.301,VALID,0,VALID,26.8388,VALID,23,VALID,1.68555,
2010-09-04, 03:27:04,VALID,1003.34,VALID,0,VALID,81.2323,VALID,0,VALID,26.8583,VALID,15,VALID,2.17539,
2010-09-04, 03:28:04,VALID,1003.39,VALID,0,VALID,81.2018,VALID,0,VALID,26.8583,VALID,49,VALID,0.978516,
2010-09-04, 03:29:04,VALID,1003.41,VALID,0,VALID,81.1179,VALID,0,VALID,26.8757,VALID,32,VALID,0.479688,
2010-09-04, 03:30:04,VALID,1003.42,VALID,0,VALID,81.1331,VALID,0,VALID,26.8778,VALID,63,VALID,1.65625,
2010-09-04, 03:31:04,VALID,1003.41,VALID,0,VALID,81.0569,VALID,0,VALID,26.8973,VALID,59,VALID,1.42422,
2010-09-04, 03:32:04,VALID,1003.39,VALID,0,VALID,80.9729,VALID,0,VALID,26.9167,VALID,114,VALID,2.31602,
2010-09-04, 03:33:04,VALID,1003.44,VALID,0,VALID,81.0569,VALID,0,VALID,26.9167,VALID,86,VALID,0.622656,
2010-09-04, 03:34:04,VALID,1003.49,VALID,0,VALID,81.2399,VALID,0,VALID,26.9167,VALID,105,VALID,0.515625,
2010-09-04, 03:35:04,VALID,1003.52,VALID,0,VALID,81.2323,VALID,0,VALID,26.8757,VALID,98,VALID,1.42383,
2010-09-04, 03:36:04,VALID,1003.55,VALID,0,VALID,81.7587,VALID,0,VALID,26.8973,VALID,98,VALID,1.42422,
2010-09-04, 03:37:04,VALID,1003.52,VALID,0,VALID,82.0868,VALID,0,VALID,26.8583,VALID,98,VALID,1.89297,
2010-09-04, 03:38:04,VALID,1003.54,VALID,0,VALID,82.8573,VALID,0,VALID,26.7609,VALID,101,VALID,0.976953,
2010-09-04, 03:39:04,VALID,1003.56,VALID,0,VALID,83.2311,VALID,0,VALID,26.683,VALID,116,VALID,1.0918,
2010-09-04, 03:40:04,VALID,1003.55,VALID,0,VALID,83.5362,VALID,0,VALID,26.6245,VALID,106,VALID,0.435937,
2010-09-04, 03:41:04,VALID,1003.59,VALID,0,VALID,84.1389,VALID,0,VALID,26.5446,VALID,78,VALID,0.921875,
2010-09-04, 03:42:04,VALID,1003.57,VALID,0,VALID,84.3296,VALID,0,VALID,26.4881,VALID,43,VALID,0.596484,
2010-09-04, 03:43:04,VALID,1003.57,VALID,0,VALID,84.734,VALID,0,VALID,26.4492,VALID,98,VALID,1.24258,
2010-09-04, 03:44:04,VALID,1003.54,VALID,0,VALID,85.0086,VALID,0,VALID,26.4297,VALID,125,VALID,0.792188,
2010-09-04, 03:45:04,VALID,1003.58,VALID,0,VALID,85.6342,VALID,0,VALID,26.3713,VALID,10,VALID,1.04648,
2010-09-04, 03:46:04,VALID,1003.55,VALID,0,VALID,85.7486,VALID,0,VALID,26.3128,VALID,149,VALID,0.4875,